Back to catalog

FENGYUN 1C DEB

AlivePO
NORAD 30933·DEBRIS·🇨🇳 China

Launched May 10, 1999 from Taiyuan Satellite Launch Center

Loading…

Next Passes (next 24 hours)

TLE

FreshSource: Space-Track

Epoch: Sep 14, 2026, 11:25 UTC

1 30933U 99025AZX 26257.47616940  .00006057  00000-0  17873-2 0  9998
2 30933  99.0570 260.6879 0065370 228.2745 286.5298 14.42703694998409

Track FENGYUN 1C DEB in real time with AllMySat

Download on the App Store